Temp
91 91 93 92 94 90 94 93 95 94 89 86 87 87 86 87 87 89 89 89 89 92 89 94 89 91 92 91 91 91 91 91 92
89 90 92 92 93 93 93 95 94 94 91 88 89 89 88 87 87 87 89 87 88 93 91 89 93 93 91 92 91 91 91 91 89
87 87 88 90 93 94 93 96 96 95 94 91 91 91 90 90 89 88 89 90 89 89 81 89 79 91 92 91 91 91 88 91 88
87 87 87 88 90 93 96 96 94 94 95 93 92 93 92 91 91 91 89 89 89 89 91 90 89 89 90 89 90 90 87 88 88
87 87 87 89 89 91 92 90 91 90 91 95 95 94 92 92 92 91 92 89 90 90 89 90 90 89 89 89 89 91 87 87 90
87 86 87 86 88 84 86 89 88 91 89 93 96 95 94 92 92 92 92 91 91 91 89 89 91 90 88 87 89 89 88 85 86
88 86 85 86 84 85 84 84 86 86 88 91 90 91 94 92 91 93 93 92 91 91 90 89 89 90 90 89 89 90 89 88 87
85 85 86 86 85 79 79 82 83 84 86 88 89 89 91 92 92 92 92 91 91 91 90 89 89 89 89 89 90 92 88 88 88
85 85 86 86 85 84 80 76 75 80 82 85 87 86 85 89 90 89 89 89 87 87 87 88 88 88 88 88 91 81 77 84 88
85 86 86 86 85 84 82 77 78 74 73 75 81 82 82 85 85 86 86 86 85 86 85 87 86 87 87 87 88 70 71 72 88
86 86 85 84 87 84 82 82 83 80 79 73 73 74 78 79 82 83 84 84 84 83 82 83 83 86 86 85 87 64 65 70 84
88 87 86 85 86 83 83 80 83 81 80 77 76 74 76 78 79 78 80 81 82 82 82 81 83 84 84 83 83 62 63 71 84
89 89 88 86 85 84 85 80 80 80 82 82 79 80 78 77 76 79 78 79 80 80 80 80 80 80 82 78 81 61 60 68 87
89 88 86 86 85 85 83 84 82 76 77 78 82 81 77 73 71 73 79 79 78 79 78 75 75 73 74 72 72 72 58 59 80
86 86 84 86 84 84 83 81 79 76 76 78 79 80 75 70 67 70 70 70 74 76 76 73 73 70 68 69 68 61 58 59 62
86 86 86 88 88 83 83 81 75 75 76 73 76 77 75 72 69 67 66 66 66 64 67 69 68 65 64 61 61 60 56 57 58
86 86 85 86 85 83 81 81 78 74 75 72 69 71 74 74 72 67 65 65 65 63 61 60 60 60 59 59 60 60 60 59 59
86 85 85 85 83 82 82 81 78 77 75 72 68 66 69 72 73 71 64 55 53 58 57 59 59 59 59 58 58 54 54 56 59
85 84 84 82 81 81 81 81 80 75 73 70 65 63 64 67 69 65 65 62 57 48 47 46 46 50 56 53 50 48 47 48 48
78 84 83 81 80 81 81 80 79 77 75 71 66 63 61 62 63 62 60 60 60 56 53 46 44 44 47 49 47 45 45 45 47
MSLP
1004.97 1005.16 1005.36 1005.58 1005.76 1007.19 1007.43 1008.05 1009.02 1009.85 1011.29 1012.29 1012.87 1013.33 1013.84 1014.30 1014.67 1014.90 1015.15 1014.97 1014.71 1014.52 1014.54 1014.28 1015.02 1015.54 1015.66 1015.96 1016.09 1016.22 1016.19 1016.41 1016.31
1004.96 1005.26 1005.18 1005.52 1005.95 1006.40 1007.10 1007.61 1008.50 1009.46 1010.42 1011.63 1012.16 1012.65 1013.36 1013.91 1014.26 1014.61 1014.42 1014.42 1014.62 1014.64 1014.61 1014.48 1014.67 1015.00 1015.46 1015.51 1015.74 1015.93 1016.11 1016.14 1016.50
1005.32 1005.90 1006.32 1006.33 1006.31 1006.31 1006.53 1007.05 1007.87 1008.85 1009.77 1010.73 1011.37 1011.78 1012.62 1013.24 1013.72 1014.19 1014.43 1014.40 1014.38 1014.41 1014.79 1014.58 1015.19 1014.89 1015.19 1015.43 1015.63 1015.76 1016.26 1015.84 1016.06
1005.66 1006.16 1006.35 1006.70 1006.87 1006.72 1006.44 1006.79 1007.22 1008.18 1009.04 1009.82 1010.58 1011.06 1011.47 1012.18 1012.85 1013.35 1013.94 1014.13 1014.34 1014.70 1014.53 1014.66 1014.93 1015.36 1015.41 1015.60 1015.52 1015.78 1016.13 1016.08 1016.03
1006.09 1006.46 1006.71 1006.90 1007.06 1006.88 1006.99 1007.20 1007.33 1007.60 1008.12 1009.03 1009.66 1010.17 1010.97 1011.46 1012.06 1012.54 1012.86 1013.49 1013.68 1014.06 1014.39 1014.56 1014.77 1015.10 1015.22 1015.24 1015.40 1015.23 1015.85 1015.84 1015.46
1005.98 1006.56 1006.89 1007.40 1007.38 1008.04 1008.03 1007.99 1008.31 1008.11 1008.78 1008.48 1008.80 1009.47 1010.13 1010.85 1011.30 1011.80 1012.10 1012.46 1013.11 1013.36 1013.81 1014.16 1014.22 1014.49 1014.76 1015.22 1015.19 1015.27 1015.50 1015.79 1015.91
1005.59 1006.44 1006.99 1007.47 1008.33 1008.53 1008.96 1009.18 1009.19 1009.46 1009.30 1009.16 1009.01 1009.00 1009.29 1009.88 1010.60 1010.79 1011.25 1011.76 1012.33 1012.85 1013.21 1013.58 1013.80 1013.93 1014.12 1014.50 1014.72 1014.80 1015.00 1015.12 1015.39
1005.66 1006.23 1006.84 1007.38 1008.00 1009.42 1009.86 1009.81 1009.83 1010.00 1009.89 1009.75 1009.74 1009.61 1009.43 1009.32 1009.95 1010.48 1010.73 1011.03 1011.55 1012.16 1012.55 1012.97 1013.30 1013.47 1013.65 1013.92 1014.12 1014.22 1014.58 1014.75 1014.89
1005.50 1006.11 1006.68 1007.40 1008.03 1008.57 1009.64 1010.43 1010.64 1010.38 1010.24 1009.96 1009.67 1009.92 1010.16 1009.79 1009.78 1010.27 1010.61 1010.78 1011.14 1011.54 1012.06 1012.35 1012.72 1012.91 1013.07 1013.32 1013.55 1013.49 1013.95 1014.30 1014.38
1005.36 1006.00 1006.72 1007.38 1007.96 1008.63 1009.28 1010.17 1010.64 1010.97 1011.04 1010.87 1010.39 1010.23 1010.36 1010.14 1009.94 1010.01 1010.32 1010.60 1010.83 1011.12 1011.44 1011.66 1011.96 1012.26 1012.53 1012.73 1013.06 1013.46 1013.70 1014.20 1014.40
1005.44 1006.16 1006.93 1007.55 1007.96 1008.62 1009.27 1009.78 1009.84 1010.50 1010.94 1011.00 1010.72 1010.70 1010.64 1010.40 1010.15 1010.17 1010.20 1010.33 1010.56 1010.83 1011.26 1011.25 1011.40 1011.58 1011.97 1012.46 1012.71 1013.30 1013.66 1014.01 1014.25
1005.38 1006.28 1007.06 1007.71 1008.24 1008.78 1009.33 1009.92 1010.04 1010.31 1010.42 1010.64 1010.78 1010.68 1010.63 1010.66 1010.49 1010.51 1010.44 1010.23 1010.20 1010.48 1010.79 1011.05 1011.15 1011.33 1011.77 1012.19 1012.62 1013.54 1013.64 1013.86 1013.84
1005.74 1006.46 1007.12 1007.78 1008.30 1008.76 1008.97 1009.80 1010.09 1010.10 1009.88 1009.98 1010.18 1010.25 1010.55 1010.66 1010.68 1010.69 1010.62 1010.60 1010.43 1010.51 1010.66 1010.76 1011.13 1011.26 1011.51 1011.81 1012.34 1013.62 1013.91 1014.01 1013.10
1005.95 1006.69 1007.50 1008.00 1008.32 1008.56 1009.10 1009.47 1009.73 1010.18 1010.15 1009.94 1009.99 1010.33 1010.70 1011.07 1011.17 1010.99 1010.62 1010.66 1010.67 1010.65 1010.76 1011.06 1011.32 1011.78 1012.20 1012.38 1012.70 1013.34 1013.80 1014.08 1013.76
1006.20 1006.85 1007.74 1007.93 1008.25 1008.63 1009.19 1009.84 1010.12 1010.18 1010.24 1010.25 1010.07 1010.23 1010.78 1011.34 1011.67 1011.21 1011.35 1011.14 1011.00 1011.03 1011.18 1011.60 1011.84 1012.32 1012.66 1013.16 1013.52 1013.61 1014.09 1014.35 1014.39
1006.20 1006.79 1007.39 1007.62 1007.96 1008.53 1009.10 1009.84 1010.52 1010.35 1010.50 1010.82 1010.62 1010.61 1011.11 1011.48 1011.64 1011.89 1011.92 1011.93 1011.85 1011.81 1011.98 1012.08 1012.49 1012.96 1013.41 1013.72 1013.97 1014.11 1014.36 1014.73 1014.80
1006.09 1006.77 1007.36 1007.65 1008.07 1008.36 1008.92 1009.64 1010.21 1010.64 1010.86 1011.17 1011.25 1011.18 1011.23 1011.53 1011.77 1012.23 1012.30 1012.57 1012.63 1012.68 1012.72 1013.00 1013.33 1013.59 1013.82 1014.14 1014.51 1014.66 1014.84 1015.28 1015.55
1005.99 1006.68 1007.29 1007.69 1008.08 1008.36 1008.78 1009.45 1010.05 1010.50 1010.83 1011.31 1011.49 1011.67 1011.84 1011.95 1012.18 1012.35 1013.07 1013.71 1014.13 1013.86 1013.98 1013.79 1013.84 1014.14 1014.45 1014.62 1015.01 1015.48 1015.46 1015.79 1016.24
1006.13 1006.50 1007.20 1007.76 1008.17 1008.42 1008.76 1009.28 1009.69 1010.40 1010.91 1011.37 1011.77 1012.04 1012.28 1012.21 1012.52 1013.02 1013.32 1013.85 1014.68 1014.94 1014.79 1014.70 1014.54 1014.72 1014.68 1015.15 1015.73 1015.94 1016.26 1016.50 1017.11
1006.32 1006.60 1007.07 1007.66 1008.14 1008.47 1008.91 1009.33 1009.51 1010.23 1010.79 1011.30 1011.80 1012.25 1012.58 1012.74 1013.01 1013.30 1013.72 1014.02 1014.45 1014.99 1015.67 1015.38 1015.56 1015.61 1015.55 1015.89 1016.25 1016.72 1016.79 1017.25 1017.27
Wind_Speed
1 6 11 12 12 7 10 13 16 15 18 16 16 15 13 11 12 8 7 8 6 4 8 5 13 8 7 6 5 6 3 6 7
2 2 0 9 10 17 14 14 16 15 17 16 16 16 13 12 11 12 10 5 7 7 7 2 8 7 8 7 7 6 4 6 3
5 4 3 1 4 9 10 15 15 16 16 17 16 15 14 12 13 12 11 9 6 5 5 7 1 7 5 6 7 5 5 6 8
7 1 1 2 5 7 10 12 13 15 16 16 15 15 14 14 14 14 12 11 10 10 8 6 3 5 7 7 7 8 6 6 7
8 4 4 3 3 5 7 5 8 7 14 15 15 14 13 14 13 13 14 13 12 11 10 10 9 10 9 8 8 5 5 8 7
8 4 5 4 5 5 2 5 4 4 8 10 14 14 15 14 15 14 14 14 14 12 11 11 11 11 8 9 9 7 7 6 7
5 5 5 8 3 4 5 4 5 6 7 8 7 7 15 14 15 15 15 13 12 13 11 11 12 11 10 11 10 9 8 8 7
4 5 5 5 7 6 1 3 6 6 7 8 10 10 10 12 11 12 11 11 12 12 12 12 12 11 11 11 11 10 10 9 9
7 6 4 3 4 4 7 4 2 1 3 5 5 9 11 11 10 10 10 10 10 11 12 11 12 12 12 12 11 11 10 8 8
7 5 4 2 1 1 5 6 7 2 3 5 4 5 8 12 10 10 11 10 10 12 13 13 13 12 12 12 12 9 11 10 9
8 6 5 4 2 4 5 7 6 6 4 3 4 5 4 7 8 11 11 11 11 11 12 13 12 13 13 11 10 12 11 10 10
8 7 5 5 4 4 3 2 1 2 4 6 5 5 5 6 6 7 10 12 12 11 11 12 12 12 12 12 8 7 10 10 11
9 8 7 6 5 3 3 4 5 6 6 5 4 2 4 3 5 8 7 9 10 10 10 11 9 10 11 11 9 8 6 8 8
8 8 7 5 3 3 3 3 4 4 6 7 2 2 2 3 4 6 6 9 8 6 6 4 5 4 3 3 5 9 6 6 7
10 8 8 5 4 3 4 4 4 5 4 4 5 3 5 5 4 2 3 5 8 9 7 6 5 4 4 3 3 2 6 7 3
9 8 5 4 1 4 2 2 2 5 0 4 5 3 4 3 4 4 5 4 4 4 3 3 4 5 4 3 2 2 7 7 7
8 7 6 5 3 2 1 2 1 0 1 1 3 6 4 2 4 5 7 5 4 3 4 4 3 2 3 4 3 4 5 6 7
6 6 6 5 4 3 2 1 2 3 3 0 2 1 1 3 3 6 7 8 5 4 4 1 5 5 4 4 4 2 7 7 6
6 7 7 6 5 4 3 3 2 3 3 4 3 2 1 0 4 4 5 6 6 14 11 13 13 7 6 4 9 9 11 13 13
6 7 8 8 6 5 3 3 2 2 2 6 5 4 3 2 2 4 4 4 5 5 7 17 16 13 11 10 9 9 10 11 12
Wind_Direction
194 222 206 222 182 198 233 175 182 186 174 189 188 190 198 200 195 208 222 212 267 248 234 199 143 173 200 216 195 216 186 226 256
146 43 27 206 200 188 211 187 187 193 176 193 192 192 193 197 197 218 225 243 216 212 258 166 155 174 203 215 208 223 215 243 258
119 129 150 265 254 253 187 196 192 190 190 190 199 194 191 195 199 202 222 248 240 271 43 275 248 188 225 215 236 234 240 243 197
103 92 353 229 276 233 230 213 188 189 192 193 198 202 190 198 200 201 205 214 212 228 245 243 218 229 221 233 236 228 209 260 285
124 88 87 163 130 220 237 221 240 180 186 198 196 200 200 198 203 207 200 209 216 212 218 218 220 206 218 235 248 230 211 236 286
158 143 126 49 50 83 274 214 266 237 264 210 199 198 197 207 202 208 221 200 214 208 207 218 222 210 218 218 221 218 222 210 261
171 154 157 125 128 70 160 195 203 228 245 261 284 223 204 201 211 211 212 213 204 212 207 212 220 227 209 212 219 223 223 229 230
178 161 174 149 147 149 216 229 220 218 229 227 231 253 266 207 212 216 224 207 201 207 209 208 219 219 220 219 222 217 212 219 231
178 166 157 168 167 158 155 181 345 1 282 244 243 217 241 259 205 216 219 223 217 204 211 214 209 221 219 215 229 213 171 215 235
164 152 135 155 122 175 127 168 169 158 1 334 321 256 257 233 234 216 217 217 218 215 214 210 212 214 218 222 228 152 154 171 226
152 150 143 138 141 128 142 178 187 150 201 284 283 309 305 269 242 228 217 215 221 223 225 222 216 214 216 221 223 155 164 171 225
142 139 125 103 85 82 122 201 285 224 232 181 198 245 262 273 266 262 246 230 228 224 225 228 229 223 224 222 192 185 168 174 217
140 144 138 143 117 139 173 158 253 260 254 219 278 242 240 271 290 265 271 266 251 239 231 236 232 232 227 225 210 182 205 213 221
139 131 140 129 133 71 42 335 342 296 297 285 294 287 185 324 319 301 281 287 288 266 247 229 175 151 117 86 143 174 199 254 241
142 142 138 173 141 89 83 38 336 295 280 286 251 248 70 67 359 330 300 294 284 280 270 222 175 153 133 133 115 66 200 235 65
155 157 156 145 112 129 119 89 336 315 50 334 306 208 97 78 73 61 46 43 37 37 9 210 173 171 166 138 78 80 114 96 92
163 170 175 187 173 149 35 107 115 337 339 326 321 264 152 108 85 82 63 51 45 77 77 66 66 76 119 119 119 112 114 105 93
182 188 192 188 198 197 161 138 112 223 127 90 126 76 239 158 126 105 95 65 26 27 27 48 126 112 94 75 86 46 68 92 108
221 199 192 193 206 225 200 206 167 148 134 126 136 134 297 124 133 112 107 108 95 48 54 44 53 70 117 74 80 100 103 109 109
205 224 197 198 215 220 228 267 154 132 152 145 152 137 131 109 148 142 151 141 128 119 73 66 45 42 58 87 124 113 116 127 137